Location: Burla
(50.9568°N, 10.4983°E)
Time: 07:05:22
(UTC+00:00)

Cosmos 1727 Rocket - Pass Details

Date: 18 January 2026
Orbit: 959 x 997 km, 82.9° (Epoch: 17 February)

Event Time Altitude Azimuth Distance (km) Brightness Sun altitude
Rises 06:19:14 0° 349° (N) 3,675 6.7 -8.2°
Reaches altitude 10° 06:21:45 10° 349° (N) 2,719 6.0 -7.8°
Maximum altitude 06:27:59 87° 263° (W) 972 4.0 -6.9°
Drops below altitude 10° 06:34:09 10° 174° (S) 2,687 6.8 -6.0°
Sets 06:36:37 0° 174° (S) 3,629 7.5 -5.7°
